Regional Weather Roundup
Issued by NWS Charleston, WV

Home | Current Version | Previous Version | Graphics & Text | Print | Product List | Glossary On
Versions: 1 2 3 4 5 6 7 8 9 10 11 12 13 14 15 16 17 18 19 20 21 22 23 24 25 26 27 28 29 30 31 32 33 34 35 36 37 38 39 40 41 42 43 44 45 46 47 48 49 50
000
ASUS41 KRLX 012010
RWRRLX
West Virginia Regional Weather Roundup
National Weather Service Charleston WV
300 PM EST SUN FEB 01 2015

Note: "fair" indicates few or no clouds below 12,000 feet with no
significant weather and/or obstructions to visibility.

WVZ003-012100-
Northern Panhandle of West Virginia

CITY           SKY/WX    TMP DP  RH WIND       PRES   REMARKS
WHEELING       CLOUDY    35  32  88 E6        29.88F
$$

WVZ009-012100-
Northwest West Virginia

CITY           SKY/WX    TMP DP  RH WIND       PRES   REMARKS
PARKERSBURG    CLOUDY    40  34  79 NE6       29.88F
$$

WVZ006-012100-
Western West Virginia

CITY           SKY/WX    TMP DP  RH WIND       PRES   REMARKS
HUNTINGTON     RAIN      44  32  62 S9G16     29.82F
$$

WVZ015-012100-
West Central West Virginia

CITY           SKY/WX    TMP DP  RH WIND       PRES   REMARKS
CHARLESTON     CLOUDY    48  23  37 S8        29.85F
$$

WVZ022-031-012100-
North Central West Virginia

CITY           SKY/WX    TMP DP  RH WIND       PRES   REMARKS
CLARKSBURG     CLOUDY    41  37  86 E5        29.89F
MORGANTOWN     LGT RAIN  37  33  85 SE3       29.90F
$$

WVZ025-035-042-045-012100-
Southern West Virginia

CITY           SKY/WX    TMP DP  RH WIND       PRES   REMARKS
BECKLEY        CLOUDY    43  17  35 SE8G18    29.89F
LOGAN            N/A     50  23  34 S13G20    29.85F
BLUEFIELD      CLOUDY    49  11  21 VRB6      29.94F
LEWISBURG      CLOUDY    42  18  37 N9        29.95F
$$

WVZ047-012100-
Northern Mountains of West Virginia

CITY           SKY/WX    TMP DP  RH WIND       PRES   REMARKS
ELKINS         CLOUDY    37  34  89 CALM      29.91F
$$

WVZ052-012100-
Eastern Panhandle of West Virginia

CITY           SKY/WX    TMP DP  RH WIND       PRES   REMARKS
MARTINSBURG    CLOUDY    41  17  38 SE5       30.05F
PETERSBURG     CLOUDY    40  28  60 W3        30.00F
$$



USA.gov is the U.S. government's official web portal to all federal, state and local government web resources and services.